Weather History for Leeuwarden, Netherlands

Change the Weather History Date:

Sunday, May 19, 2013

  Actual Average Record
Temperature  
Mean Temperature 47 °F -  
Max Temperature 57 °F 62 °F 69 °F (1999)
Min Temperature 37 °F 48 °F 37 °F (2013)
Degree Days  
Heating Degree Days 18    
Moisture  
Dew Point 46 °F    
Average Humidity 90    
Maximum Humidity 100    
Minimum Humidity 71    
Precipitation  
Precipitation 0.00 in - - ()
Sea Level Pressure  
Sea Level Pressure 29.83 in    
Wind  
Wind Speed 4 mph ()    
Max Wind Speed 14 mph    
Max Gust Speed -    
Visibility 4.5 miles    
Events Fog    
Averages and records for this station are not official NWS values.
T = Trace of Precipitation, MM = Missing Value Source: Averaged Metar Reports

Daily Weather History Graph

Daily Weather History Graph

Search for Another Location

Airport:

Trip Planner

Search our weather history database for the weather conditions in past years. The results will help you decide how hot, cold, wet, or windy it might be!

Date:

Astronomy

May. 19, 2013 Rise Set
Actual Time 5:31 AM CEST 9:36 PM CEST
Civil Twilight 4:46 AM CEST 10:22 PM CEST
Nautical Twilight 3:40 AM CEST 11:28 PM CEST
Astronomical Twilight 2:05 AM CEST 1:01 AM CEST
Moon 2:33 PM CEST (5/19) 2:41 AM CEST (5/19)
Length of Visible Light 17h 35m
Length of Day
16h 04m
Waxing Gibbous, 62% of the Moon is Illuminated
May 19
Waxing Gibbous
May 25
Full
May 31
Last Quarter
Jun 8
New
Jun 16
First Quarter

Hourly Weather History & Observations

Time (CEST) Temp. Windchill Dew Point Humidity Pressure Visibility Wind Dir Wind Speed Gust Speed Precip Events Conditions
12:00 AM 48.2 °F - 46.4 °F 93% 29.86 in 4.3 mi ENE 1.2 mph - N/A   Overcast
12:14 AM 48.2 °F - 46.4 °F 93% 29.86 in 5.0 mi NNW 2.3 mph - N/A   Overcast
12:25 AM 46.4 °F 45.2 °F 44.6 °F 93% 29.83 in 3.7 mi NNW 3.5 mph - N/A   Mostly Cloudy
12:29 AM 48.2 °F - 44.6 °F 87% 29.83 in 5.0 mi NNW 3.5 mph - N/A   Scattered Clouds
12:35 AM 48.2 °F - 44.6 °F 87% 29.83 in 4.3 mi NNW 2.3 mph - N/A   Mist
12:39 AM 46.4 °F - 44.6 °F 93% 29.83 in 5.0 mi NW 1.2 mph - N/A   Mist
12:43 AM 46.4 °F - 44.6 °F 93% 29.83 in 4.3 mi NW 2.3 mph - N/A   Mist
12:47 AM 46.4 °F - 44.6 °F 93% 29.83 in - WNW 2.3 mph - N/A   Partly Cloudy
12:51 AM 46.4 °F - 44.6 °F 93% 29.83 in 3.7 mi NW 2.3 mph - N/A   Partly Cloudy
12:55 AM 46.4 °F - 44.6 °F 93% 29.83 in 3.1 mi NNW 1.2 mph - N/A   Partly Cloudy
1:02 AM 46.4 °F - 44.6 °F 93% 29.83 in - NE 1.2 mph - N/A   Mostly Cloudy
1:06 AM 46.4 °F - 44.6 °F 93% 29.83 in 3.1 mi East 2.3 mph - N/A   Mostly Cloudy
1:19 AM 46.4 °F - 44.6 °F 93% 29.86 in 3.7 mi ENE 2.3 mph - N/A   Overcast
1:25 AM 46.4 °F - 44.6 °F 93% 29.83 in 3.1 mi NE 2.3 mph - N/A   Overcast
1:35 AM 46.4 °F - 44.6 °F 93% 29.83 in 3.7 mi ENE 1.2 mph - N/A   Overcast
1:49 AM 46.4 °F - 44.6 °F 93% 29.83 in - ESE 1.2 mph - N/A   Overcast
1:55 AM 46.4 °F - 44.6 °F 93% 29.83 in 3.1 mi East 2.3 mph - N/A   Overcast
2:00 AM 48 °F - 46 °F 90% 29.86 in 4 mi East 4.5 mph - -   Mist
2:08 AM 48.2 °F - 46.4 °F 93% 29.83 in 3.1 mi East 4.6 mph - N/A   Mostly Cloudy
2:12 AM 46.4 °F 44.3 °F 44.6 °F 93% 29.83 in - ENE 4.6 mph - N/A   Mostly Cloudy
2:25 AM 46.4 °F 45.2 °F 44.6 °F 93% 29.83 in - East 3.5 mph - N/A   Scattered Clouds
2:55 AM 42.8 °F 40.1 °F 41.0 °F 93% 29.83 in 1.8 mi North 4.6 mph - N/A   Mist
3:01 AM 42.8 °F 40.1 °F 41.0 °F 93% 29.83 in 1.6 mi NNE 4.6 mph - N/A   Partly Cloudy
3:05 AM 42.8 °F 40.1 °F 41.0 °F 93% 29.83 in 0.7 mi NE 4.6 mph - N/A   Partly Cloudy
3:08 AM 42.8 °F 40.1 °F 41.0 °F 93% 29.83 in - NE 4.6 mph - N/A Fog Fog
3:13 AM 42.8 °F 40.1 °F 41.0 °F 93% 29.83 in - NE 4.6 mph - N/A Fog Fog
3:17 AM 42.8 °F 40.1 °F 41.0 °F 93% 29.86 in 0.6 mi NE 4.6 mph - N/A   Mostly Cloudy
3:21 AM 44.6 °F 42.2 °F 42.8 °F 93% 29.86 in 1.2 mi NE 4.6 mph - N/A   Mostly Cloudy
3:25 AM 44.6 °F 42.2 °F 42.8 °F 93% 29.86 in 0.9 mi ENE 4.6 mph - N/A   Overcast
3:29 AM 44.6 °F 42.2 °F 42.8 °F 93% 29.86 in 1.2 mi East 4.6 mph - N/A   Mostly Cloudy
3:39 AM 42.8 °F 41.1 °F 42.8 °F 100% 29.86 in 0.9 mi ENE 3.5 mph - N/A   Mostly Cloudy
3:45 AM 44.6 °F 43.1 °F 42.8 °F 93% 29.86 in - ENE 3.5 mph - N/A Fog Fog
3:55 AM 42.8 °F - 41.0 °F 93% 29.86 in 0.2 mi ENE 2.3 mph - N/A Fog Fog
4:25 AM 42.8 °F - 41.0 °F 93% 29.86 in 0.2 mi ESE 1.2 mph - N/A Fog Fog
4:29 AM 42.8 °F - 41.0 °F 93% 29.86 in 0.2 mi East 2.3 mph - N/A Fog Fog
4:55 AM 41.0 °F - 39.2 °F 93% 29.86 in 0.2 mi East 2.3 mph - N/A Fog Fog
5:25 AM 39.2 °F - 39.2 °F 100% 29.86 in 0.2 mi NE 2.3 mph - N/A Fog Fog
5:29 AM 41.0 °F - 39.2 °F 93% 29.86 in 0.6 mi NE 2.3 mph - N/A Fog Fog
5:35 AM 41.0 °F - 39.2 °F 93% 29.86 in - NE 2.3 mph - N/A   Overcast
5:39 AM 41.0 °F - 41.0 °F 100% 29.86 in 1.6 mi NE 1.2 mph - N/A   Overcast
5:43 AM 42.8 °F - 41.0 °F 93% 29.86 in 3.1 mi NE 1.2 mph - N/A   Overcast
5:47 AM 42.8 °F - 41.0 °F 93% 29.86 in - Calm Calm - N/A   Overcast
5:48 AM 42.8 °F - 41.0 °F 93% 29.86 in - Calm Calm - N/A   Overcast
5:55 AM 42.8 °F - 41.0 °F 93% 29.86 in 2.5 mi Calm Calm - N/A   Overcast
6:00 AM 42.8 °F - 42.8 °F 100% 29.86 in - Calm Calm - N/A   Overcast
6:04 AM 42.8 °F - 42.8 °F 100% 29.86 in - Calm Calm - N/A   Overcast
6:17 AM 44.6 °F - 42.8 °F 93% 29.86 in - Calm Calm - N/A   Overcast
6:25 AM 44.6 °F - 42.8 °F 93% 29.86 in - Calm Calm - N/A   Overcast
6:36 AM 44.6 °F - 44.6 °F 100% 29.86 in 2.2 mi Calm Calm - N/A   Overcast
6:40 AM 44.6 °F - 44.6 °F 100% 29.86 in - North 1.2 mph - N/A   Overcast
6:41 AM 46.4 °F - 44.6 °F 93% 29.86 in - NNW 1.2 mph - N/A   Overcast
6:55 AM 46.4 °F - 44.6 °F 93% 29.86 in 1.7 mi NW 2.3 mph - N/A   Overcast
7:25 AM 46.4 °F - 46.4 °F 100% 29.86 in 1.8 mi NW 1.2 mph - N/A   Overcast
7:55 AM 46.4 °F - 46.4 °F 100% 29.86 in - East 1.2 mph - N/A   Overcast
8:00 AM 47 °F - 46 °F 95% 29.88 in 2 mi Calm Calm - -   Mist
8:17 AM 48.2 °F - 46.4 °F 93% 29.86 in - SSW 1.2 mph - N/A   Overcast
8:21 AM 48.2 °F - 46.4 °F 93% 29.86 in 2.2 mi WSW 2.3 mph - N/A   Overcast
8:25 AM 48.2 °F - 48.2 °F 100% 29.86 in - West 2.3 mph - N/A   Overcast
8:29 AM 48.2 °F - 48.2 °F 100% 29.86 in 3.1 mi West 1.2 mph - N/A   Mostly Cloudy
8:39 AM 50.0 °F - 48.2 °F 94% 29.86 in 5.0 mi West 2.3 mph - N/A   Partly Cloudy
8:45 AM 50.0 °F - 50.0 °F 100% 29.86 in 6.2 mi West 1.2 mph - N/A   Scattered Clouds
8:55 AM 51.8 °F - 50.0 °F 94% 29.86 in 6.2 mi NW 2.3 mph - N/A   Mostly Cloudy
9:02 AM 51.8 °F - 50.0 °F 94% 29.86 in 6.2 mi NW 3.5 mph - N/A   Partly Cloudy
9:25 AM 51.8 °F - 50.0 °F 94% 29.86 in 6.2 mi NNW 4.6 mph - N/A   Partly Cloudy
9:29 AM 53.6 °F - 51.8 °F 94% 29.86 in 6.2 mi NNW 4.6 mph - N/A   Scattered Clouds
9:33 AM 53.6 °F - 50.0 °F 88% 29.86 in 6.2 mi NW 4.6 mph - N/A   Mostly Cloudy
9:40 AM 51.8 °F - 48.2 °F 88% 29.86 in 6.2 mi WNW 4.6 mph - N/A   Mostly Cloudy
9:55 AM 53.6 °F - 48.2 °F 82% 29.86 in 6.2 mi NW 3.5 mph - N/A   Overcast
10:25 AM 53.6 °F - 46.4 °F 77% 29.86 in 6.2 mi NNW 6.9 mph - N/A   Overcast
10:55 AM 51.8 °F - 44.6 °F 76% 29.86 in 6.2 mi NW 5.8 mph - N/A   Overcast
11:25 AM 53.6 °F - 46.4 °F 77% 29.86 in 6.2 mi North 5.8 mph - N/A   Overcast
11:55 AM 53.6 °F - 46.4 °F 77% 29.86 in 6.2 mi North 6.9 mph - N/A   Overcast
12:25 PM 53.6 °F - 46.4 °F 77% 29.86 in 6.2 mi NNW 9.2 mph - N/A   Overcast
12:55 PM 53.6 °F - 48.2 °F 82% 29.86 in 6.2 mi NNW 9.2 mph - N/A   Overcast
1:08 PM 55.4 °F - 48.2 °F 77% 29.86 in 6.2 mi NNW 10.4 mph - N/A   Overcast
1:14 PM 55.4 °F - 50.0 °F 82% 29.86 in 6.2 mi NNW 11.5 mph - N/A   Overcast
1:18 PM 55.4 °F - 48.2 °F 77% 29.83 in 6.2 mi NNW 11.5 mph - N/A   Overcast
1:25 PM 55.4 °F - 48.2 °F 77% 29.83 in 6.2 mi NNW 12.7 mph - N/A   Overcast
1:45 PM 55.4 °F - 48.2 °F 77% 29.83 in 6.2 mi NNW 12.7 mph - N/A   Mostly Cloudy
1:49 PM 55.4 °F - 48.2 °F 77% 29.83 in 6.2 mi North 11.5 mph - N/A   Mostly Cloudy
1:55 PM 55.4 °F - 48.2 °F 77% 29.83 in 6.2 mi North 10.4 mph - N/A   Mostly Cloudy
1:59 PM 55.4 °F - 50.0 °F 82% 29.83 in 6.2 mi North 11.5 mph - N/A   Mostly Cloudy
2:00 PM 56 °F - 49 °F 71% 29.85 in 7 mi NNW 11.2 mph - -   Partly Cloudy
2:00 PM 55.4 °F - 50.0 °F 82% 29.83 in 6.2 mi NNW 11.5 mph - N/A   Mostly Cloudy
2:08 PM 55.4 °F - 50.0 °F 82% 29.83 in 6.2 mi NNW 12.7 mph - N/A   Mostly Cloudy
2:12 PM 55.4 °F - 50.0 °F 82% 29.83 in 6.2 mi North 13.8 mph - N/A   Overcast
2:25 PM 57.2 °F - 50.0 °F 77% 29.83 in 6.2 mi North 11.5 mph - N/A   Mostly Cloudy
2:29 PM 57.2 °F - 50.0 °F 77% 29.83 in 6.2 mi North 11.5 mph - N/A   Mostly Cloudy
2:41 PM 55.4 °F - 48.2 °F 77% 29.83 in 6.2 mi North 12.7 mph - N/A   Mostly Cloudy
2:45 PM 55.4 °F - 48.2 °F 77% 29.83 in 6.2 mi North 11.5 mph - N/A   Overcast
2:55 PM 55.4 °F - 48.2 °F 77% 29.83 in 6.2 mi North 11.5 mph - N/A   Overcast
3:25 PM 53.6 °F - 48.2 °F 82% 29.83 in 6.2 mi North 11.5 mph - N/A   Overcast
3:55 PM 53.6 °F - 48.2 °F 82% 29.83 in 5.6 mi North 10.4 mph - N/A   Haze
4:25 PM 53.6 °F - 48.2 °F 82% 29.83 in 6.2 mi North 10.4 mph - N/A   Overcast
4:55 PM 51.8 °F - 48.2 °F 88% 29.83 in 6.2 mi North 8.1 mph - N/A   Overcast
5:05 PM 51.8 °F - 48.2 °F 88% 29.83 in 6.2 mi North 8.1 mph - N/A   Overcast
5:09 PM 51.8 °F - 48.2 °F 88% 29.83 in 6.2 mi North 6.9 mph - N/A   Overcast
5:25 PM 51.8 °F - 48.2 °F 88% 29.83 in 6.2 mi North 6.9 mph - N/A   Overcast
5:41 PM 51.8 °F - 48.2 °F 88% 29.83 in 6.2 mi North 5.8 mph - N/A   Overcast
5:45 PM 51.8 °F - 48.2 °F 88% 29.83 in 6.2 mi North 5.8 mph - N/A   Overcast
5:55 PM 51.8 °F - 48.2 °F 88% 29.83 in 6.2 mi North 5.8 mph - N/A   Overcast
6:11 PM 51.8 °F - 48.2 °F 88% 29.80 in 6.2 mi North 5.8 mph - N/A   Overcast
6:15 PM 51.8 °F - 48.2 °F 88% 29.80 in 6.2 mi North 4.6 mph - N/A   Overcast
6:25 PM 51.8 °F - 48.2 °F 88% 29.80 in 6.2 mi North 4.6 mph - N/A   Overcast
6:46 PM 51.8 °F - 48.2 °F 88% 29.80 in 6.2 mi NNW 5.8 mph - N/A   Overcast
6:55 PM 51.8 °F - 48.2 °F 88% 29.80 in 6.2 mi NNW 6.9 mph - N/A   Mostly Cloudy
7:04 PM 51.8 °F - 48.2 °F 88% 29.80 in 6.2 mi NNW 5.8 mph - N/A   Overcast
7:07 PM 51.8 °F - 48.2 °F 88% 29.80 in 6.2 mi NNW 6.9 mph - N/A   Overcast
7:14 PM 51.8 °F - 48.2 °F 88% 29.80 in 6.2 mi NNW 6.9 mph - N/A   Overcast
7:25 PM 51.8 °F - 48.2 °F 88% 29.80 in 6.2 mi NNW 6.9 mph - N/A   Overcast
7:55 PM 51.8 °F - 48.2 °F 88% 29.77 in 6.2 mi NW 6.9 mph - N/A   Overcast
8:00 PM 51 °F - 48 °F 86% 29.80 in 9 mi NW 6.7 mph - -   Partly Cloudy
8:25 PM 51.8 °F - 48.2 °F 88% 29.77 in 6.2 mi NNW 6.9 mph - N/A   Overcast
8:35 PM 51.8 °F - 48.2 °F 88% 29.77 in 6.2 mi NW 8.1 mph - N/A   Overcast
8:39 PM 51.8 °F - 48.2 °F 88% 29.77 in 6.2 mi NW 8.1 mph - N/A   Overcast
8:48 PM 51.8 °F - 48.2 °F 88% 29.77 in 6.2 mi NNW 8.1 mph - N/A   Overcast
8:55 PM 50.0 °F - 48.2 °F 94% 29.77 in 6.2 mi NNW 6.9 mph - N/A   Overcast
9:17 PM 50.0 °F - 48.2 °F 94% 29.80 in 4.3 mi NNW 8.1 mph - N/A   Overcast
9:25 PM 50.0 °F - 48.2 °F 94% 29.80 in 4.3 mi NNW 6.9 mph - N/A   Overcast
9:48 PM 50.0 °F - 48.2 °F 94% 29.80 in 3.7 mi NNW 8.1 mph - N/A   Overcast
9:55 PM 50.0 °F - 48.2 °F 94% 29.80 in 3.7 mi NNW 8.1 mph - N/A   Overcast
10:01 PM 50.0 °F - 48.2 °F 94% 29.80 in - NNW 8.1 mph - N/A   Overcast
10:20 PM 50.0 °F - 48.2 °F 94% 29.80 in 3.1 mi NNW 5.8 mph - N/A   Overcast
10:25 PM 50.0 °F - 48.2 °F 94% 29.80 in 3.1 mi NNW 5.8 mph - N/A   Overcast
10:55 PM 50.0 °F - 48.2 °F 94% 29.80 in - NNW 4.6 mph - N/A   Overcast
10:59 PM 50.0 °F - 48.2 °F 94% 29.80 in 2.2 mi NNW 3.5 mph - N/A   Overcast
11:25 PM 50.0 °F - 48.2 °F 94% 29.80 in 1.4 mi North 2.3 mph - N/A   Overcast
11:41 PM 50.0 °F - 48.2 °F 94% 29.80 in 1.6 mi North 2.3 mph - N/A   Overcast
11:50 PM 50.0 °F - 48.2 °F 94% 29.80 in 1.6 mi North 2.3 mph - N/A   Overcast
11:55 PM 50.0 °F - 48.2 °F 94% 29.77 in 1.6 mi North 2.3 mph - N/A   Overcast
11:59 PM 50.0 °F - 48.2 °F 94% 29.77 in 1.6 mi North 3.5 mph - N/A   Overcast